Showing default

FLOCK 4G 1, 62666

Orbit data source: Space-Track

FLOCK 4G 1, 62666 is a payload satellite owned by Planet (US) in SSO that was launched on Tue, 14 Jan 2025 UTC via an FALCON 9 launch vehicle from the Air Force Western Test Range (AFWTR). Payload-class satellites include a variety of spacecraft equipped with specific instruments for various scientific and technological missions. These include communications satellites like Starlink; space stations such as the ISS; scientific satellites like the Hubble; Earth observation satellites from companies like Planet Labs, Umbra, and HawkEye 360; GPS; miniature CubeSats for education and research; and military/defense satellites.

Loading next visibility...
Identifier
62666, 2025-009BK
Orbit
SSO
Country
Flag of USUS
Related business
Manufacturer
Planet
Mission
Operational Commercial Imaging
Bus & Motor
CUBESAT 3U, Unknown motor
Mass
5.7 kg wet, 5.7 kg dry
Launch date (UTC)
2025-01-14 (2 years ago)
Launch vehicle
FALCON 9
Launch site
Air Force Western Test Range (AFWTR)
Object type
Payload
Rocket body
Debris
Shape & HBR
Box + 2 Pan, 1.0 m
Radar Cross Section
0.072 m², Medium (>0.1 m² and < 1m²)

Expand to show TLE details & history
Last TLE update: 8 hours ago

TLE from 8 hours ago
0 FLOCK 4G 1
1 62666U 25009BK  26238.48820530  .00009391  00000-0  31637-3 0  9998
2 62666  97.3996 320.2503 0005656  79.2455 280.9423 15.30953684 89661
Epoch: 2026-08-26T11:43Z
TLE epoch observation values (Epoch: 2026-08-26T11:43:00.937Z)
Latitude
-0.00001°
Longitude
169.75591°
Altitude
475.337 km
Speed
7.629 km/s
True Right ascension
21h 21m 00s
True Declination
0° 00' 00"
Sunlit
Object was in full shadow at epoch
Visualization orbit readout
Latitude
Unknown
Longitude
Unknown
Altitude
Unknown
Speed
Unknown
Apparent Right ascension
Unknown
Apparent Declination
Unknown
Sunlit
N/A
Visualization observer readout
Local Sidereal Time
11:20:37
Azimuth
Unknown
Elevation
Unknown
Doppler factor
Unknown
Orbital elements
Apogee altitude
473.79 km
Perigee altitude
466.043 km
Semi-major axis
6,848.054 km
Eccentricity
0.00057
Inclination
97.3996°
RAAN
320.2503°
Arg. of periapsis
79.2455°
True anomaly
280.87866°
Mean anomaly
280.9423°
Eccentric anomaly
280.91048°
Mean motion
3.82994 °/min
Orbital period
94 mins
BSTAR
0.00031637
Loading maneuver chart data...
Computing Atmospheric mass density...
Loading historical data...
Loading historical data...
Loading historical data...
Loading historical data...
Loading historical data...
Loading historical data...
Loading historical data...

Documentation

Showing up to 5 results
|